GW4429 Weather Reports


Display with metric or nautical units.
time (UTC)temp
F
wind
direction
speed
MPH
gust
MPH
rain 1hr
in
rain 24hr
in
rain mn
in
humidity
%
barometer
mb
20260505080534 77 54 6.0 10.0 0.00 0.00 0.00 83 1015.8
20260505080103 77 51 5.0 10.0 0.00 0.00 0.00 83 1015.9
20260505075534 77 35 6.0 10.0 0.00 0.00 0.00 83 1015.9
20260505075034 77 46 5.0 10.0 0.00 0.00 0.00 83 1015.8
20260505074551 77 41 5.0 10.0 0.00 0.00 0.00 83 1015.9
20260505074034 77 40 5.0 10.0 0.00 0.00 0.00 83 1015.8
20260505073537 77 16 6.0 11.0 0.00 0.00 0.00 83 1015.8
20260505073046 77 84 5.0 11.0 0.00 0.00 0.00 83 1015.8
20260505072534 78 51 5.0 10.0 0.00 0.00 0.00 82 1015.7
20260505072034 78 50 4.0 9.0 0.00 0.00 0.00 82 1015.8
20260505071546 78 66 4.0 9.0 0.00 0.00 0.00 82 1015.8
20260505071034 78 56 4.0 9.0 0.00 0.00 0.00 81 1015.8
20260505070534 78 39 4.0 8.0 0.00 0.00 0.00 81 1015.8
20260505070052 78 77 3.0 9.0 0.00 0.00 0.00 81 1015.8
20260505065535 79 53 3.0 9.0 0.00 0.00 0.00 81 1015.7
20260505065034 79 80 3.0 7.0 0.00 0.00 0.00 80 1015.8
20260505064544 79 52 3.0 8.0 0.00 0.00 0.00 80 1015.8
20260505064034 79 75 3.0 8.0 0.00 0.00 0.00 80 1015.8
20260505063534 79 86 3.0 8.0 0.00 0.00 0.00 80 1015.8
20260505063108 79 78 3.0 8.0 0.00 0.00 0.00 80 1015.9
20260505062539 79 92 3.0 8.0 0.00 0.00 0.00 80 1015.9
20260505062033 79 92 3.0 8.0 0.00 0.00 0.00 80 1016.0
20260505061548 79 84 3.0 8.0 0.00 0.00 0.00 79 1016.0
20260505061037 80 92 3.0 9.0 0.00 0.00 0.00 79 1016.1
20260505060534 80 80 2.0 9.0 0.00 0.00 0.00 79 1016.1
20260505060054 80 64 4.0 9.0 0.00 0.00 0.00 79 1016.1
20260505055534 80 98 3.0 10.0 0.00 0.00 0.00 79 1016.1
20260505055034 80 132 4.0 10.0 0.00 0.00 0.00 78 1016.1
20260505054606 80 76 4.0 9.0 0.00 0.00 0.00 78 1016.1
20260505054037 80 94 3.0 9.0 0.00 0.00 0.00 78 1016.3
20260505053535 80 98 3.0 9.0 0.00 0.00 0.00 78 1016.4
20260505053058 80 91 4.0 9.0 0.00 0.00 0.00 79 1016.5
20260505052536 80 82 5.0 9.0 0.00 0.00 0.00 78 1016.5
20260505052036 79 83 5.0 9.0 0.00 0.00 0.00 79 1016.5
20260505051550 79 69 3.0 9.0 0.00 0.00 0.00 79 1016.6
20260505051036 79 76 3.0 8.0 0.00 0.00 0.00 79 1016.7
20260505050536 80 81 3.0 8.0 0.00 0.00 0.00 78 1016.8
20260505041557 79 78 3.0 9.0 0.00 0.00 0.00 81 1017.3
20260505041036 79 59 4.0 9.0 0.00 0.00 0.00 80 1017.3
20260505040536 79 51 4.0 9.0 0.00 0.00 0.00 81 1017.4
20260505040053 79 54 4.0 8.0 0.00 0.00 0.00 81 1017.4
20260505035535 79 37 4.0 9.0 0.00 0.00 0.00 82 1017.5
20260505035035 79 51 4.0 9.0 0.00 0.00 0.00 82 1017.6
20260505034546 79 44 4.0 7.0 0.00 0.00 0.00 82 1017.7
20260505034040 79 49 3.0 6.0 0.00 0.00 0.00 82 1017.7
20260505033536 80 41 3.0 6.0 0.00 0.00 0.00 82 1017.6
20260505033048 80 73 3.0 7.0 0.00 0.00 0.00 82 1017.6
20260505032537 80 74 2.0 7.0 0.00 0.00 0.00 82 1017.6
20260505032036 80 51 4.0 8.0 0.00 0.00 0.00 82 1017.7
20260505031554 79 50 4.0 8.0 0.00 0.00 0.00 82 1017.7
20260505031036 79 53 4.0 6.0 0.00 0.00 0.00 82 1017.8
20260505030535 79 53 3.0 6.0 0.00 0.00 0.00 82 1017.9
20260505030046 79 52 2.0 8.0 0.00 0.00 0.00 82 1017.8
20260505025536 80 34 3.0 9.0 0.00 0.00 0.00 82 1017.8
20260505025039 80 54 5.0 9.0 0.00 0.00 0.00 82 1017.9
20260505024555 80 40 4.0 8.0 0.00 0.00 0.00 82 1017.7
20260505024036 80 45 4.0 8.0 0.00 0.00 0.00 81 1017.7
20260505023537 80 32 4.0 8.0 0.00 0.00 0.00 81 1017.7
20260505023053 80 38 2.0 6.0 0.00 0.00 0.00 81 1017.7
20260505022537 80 64 4.0 8.0 0.00 0.00 0.00 81 1017.6
20260505022036 80 51 5.0 8.0 0.00 0.00 0.00 81 1017.6
20260505021548 80 51 3.0 8.0 0.00 0.00 0.00 81 1017.5
20260505021035 80 42 4.0 8.0 0.00 0.00 0.00 81 1017.5
20260505020536 80 38 3.0 7.0 0.00 0.00 0.00 81 1017.4
20260505020046 80 60 4.0 8.0 0.00 0.00 0.00 81 1017.4
20260505015538 81 57 4.0 8.0 0.00 0.00 0.00 81 1017.4
20260505015039 81 54 4.0 7.0 0.00 0.00 0.00 80 1017.4
20260505014606 81 53 5.0 7.0 0.00 0.00 0.00 80 1017.3
20260505014036 81 46 4.0 6.0 0.00 0.00 0.00 81 1017.2
20260505013536 81 63 4.0 6.0 0.00 0.00 0.00 80 1017.1
20260505013046 81 57 3.0 6.0 0.00 0.00 0.00 81 1017.1
20260505012536 81 58 3.0 5.0 0.00 0.00 0.00 80 1017.0
20260505012036 81 0 2.0 5.0 0.00 0.00 0.00 80 1017.1
20260505011601 81 49 3.0 6.0 0.00 0.00 0.00 80 1017.1
20260505011037 82 65 2.0 6.0 0.00 0.00 0.00 80 1016.9
20260505010536 82 56 3.0 6.0 0.00 0.00 0.00 79 1016.9
20260505010043 82 94 3.0 6.0 0.00 0.00 0.00 79 1016.8
20260505005537 82 80 3.0 6.0 0.00 0.00 0.00 79 1016.7
20260505005036 82 100 2.0 7.0 0.00 0.00 0.00 79 1016.6
20260505004548 82 82 3.0 7.0 0.00 0.00 0.00 79 1016.5
20260505004036 82 92 3.0 7.0 0.00 0.00 0.00 79 1016.5
20260505003539 82 65 3.0 7.0 0.00 0.00 0.00 78 1016.4
20260505003048 82 77 3.0 7.0 0.00 0.00 0.00 78 1016.5
20260505002535 83 56 3.0 5.0 0.00 0.00 0.00 78 1016.5
20260505002036 83 82 2.0 5.0 0.00 0.00 0.00 78 1016.4
20260505001547 83 76 2.0 4.0 0.00 0.00 0.00 78 1016.4
20260505001037 83 79 2.0 6.0 0.00 0.00 0.00 77 1016.4
20260505000536 83 83 2.0 8.0 0.00 0.00 0.00 77 1016.3
20260505000057 83 76 3.0 8.0 0.00 0.00 0.00 77 1016.3
20260504235536 84 98 3.0 10.0 0.00 0.00 0.00 77 1016.2
20260504235036 84 135 4.0 10.0 0.00 0.00 0.00 76 1016.2
20260504234549 84 116 3.0 9.0 0.00 0.00 0.00 76 1016.2
20260504234039 84 77 4.0 9.0 0.00 0.00 0.00 76 1016.2
20260504233536 84 61 2.0 10.0 0.00 0.00 0.00 75 1016.2
20260504233105 84 101 4.0 10.0 0.00 0.00 0.00 75 1016.2
20260504232536 84 119 5.0 10.0 0.00 0.00 0.00 75 1016.2
20260504232035 84 134 5.0 10.0 0.00 0.00 0.00 75 1016.1
20260504231548 85 88 4.0 8.0 0.00 0.00 0.00 74 1016.1
20260504231035 84 94 2.0 8.0 0.00 0.00 0.00 74 1016.1
20260504230534 85 144 4.0 8.0 0.00 0.00 0.00 73 1016.1
20260504230048 85 103 3.0 9.0 0.00 0.00 0.00 72 1016.1
20260504225535 85 117 4.0 9.0 0.00 0.00 0.00 72 1016.0
20260504225034 85 89 4.0 10.0 0.00 0.00 0.00 73 1015.9
20260504224558 86 142 5.0 10.0 0.00 0.00 0.00 73 1015.8
20260504224036 86 119 5.0 9.0 0.00 0.00 0.00 73 1015.8
20260504223534 86 153 4.0 9.0 0.00 0.00 0.00 73 1015.7
20260504223100 86 94 4.0 10.0 0.00 0.00 0.00 72 1015.7
20260504222533 87 138 6.0 10.0 0.00 0.00 0.00 71 1015.6
20260504222034 87 122 5.0 11.0 0.00 0.00 0.00 71 1015.6
20260504221550 87 152 5.0 11.0 0.00 0.00 0.00 71 1015.5
20260504221037 88 161 6.0 13.0 0.00 0.00 0.00 71 1015.5
20260504220535 88 132 6.0 13.0 0.00 0.00 0.00 70 1015.4
20260504220052 89 105 5.0 12.0 0.00 0.00 0.00 70 1015.4
20260504215535 89 145 6.0 12.0 0.00 0.00 0.00 70 1015.4
20260504215038 89 141 4.0 12.0 0.00 0.00 0.00 69 1015.2
20260504214544 89 142 7.0 12.0 0.00 0.00 0.00 69 1015.2
20260504214034 89 135 4.0 14.0 0.00 0.00 0.00 70 1015.1
20260504213535 89 112 8.0 14.0 0.00 0.00 0.00 69 1015.1
20260504213057 89 142 6.0 12.0 0.00 0.00 0.00 69 1015.2
20260504212535 89 116 6.0 14.0 0.00 0.00 0.00 69 1015.1
20260504212034 90 161 8.0 14.0 0.00 0.00 0.00 68 1015.2
20260504211545 90 113 9.0 12.0 0.00 0.00 0.00 68 1015.0
20260504211035 90 142 4.0 13.0 0.00 0.00 0.00 68 1015.1
20260504210537 90 109 6.0 13.0 0.00 0.00 0.00 68 1015.1
20260504210047 90 140 6.0 13.0 0.00 0.00 0.00 68 1015.1
20260504205535 90 148 7.0 15.0 0.00 0.00 0.00 68 1015.0
20260504205038 90 161 9.0 15.0 0.00 0.00 0.00 68 1015.0
20260504204549 90 160 7.0 15.0 0.00 0.00 0.00 68 1015.0
20260504204035 90 130 9.0 15.0 0.00 0.00 0.00 68 1015.0
20260504203534 90 133 7.0 15.0 0.00 0.00 0.00 69 1015.1
20260504203106 89 123 8.0 15.0 0.00 0.00 0.00 68 1015.1
20260504202535 89 131 8.0 15.0 0.00 0.00 0.00 68 1015.2
20260504202041 89 98 8.0 15.0 0.00 0.00 0.00 68 1015.1
20260504201559 89 120 8.0 17.0 0.00 0.00 0.00 69 1015.2
20260504201034 89 123 8.0 17.0 0.00 0.00 0.00 69 1015.2
20260504200535 89 129 7.0 17.0 0.00 0.00 0.00 69 1015.3
20260504200111 89 119 10.0 15.0 0.00 0.00 0.00 68 1015.3
20260504195534 90 126 10.0 16.0 0.00 0.00 0.00 68 1015.3
20260504195034 90 113 8.0 18.0 0.00 0.00 0.00 68 1015.4
20260504194546 89 119 9.0 18.0 0.00 0.00 0.00 68 1015.3
20260504194035 90 133 11.0 18.0 0.00 0.00 0.00 68 1015.4
20260504193536 90 119 7.0 16.0 0.00 0.00 0.00 69 1015.4
20260504193044 89 218 12.0 18.0 0.00 0.00 0.00 68 1015.4
20260504192534 90 132 10.0 18.0 0.00 0.00 0.00 68 1015.5
20260504192035 90 128 9.0 16.0 0.00 0.00 0.00 68 1015.6
20260504191556 90 137 8.0 17.0 0.00 0.00 0.00 69 1015.7
20260504191035 90 113 9.0 17.0 0.00 0.00 0.00 69 1015.6
20260504190534 90 140 9.0 15.0 0.00 0.00 0.00 68 1015.7
20260504190047 90 107 7.0 17.0 0.00 0.00 0.00 69 1015.7
20260504185533 89 130 8.0 21.0 0.00 0.00 0.00 69 1015.7
20260504185036 89 140 9.0 21.0 0.00 0.00 0.00 69 1015.8
20260504184550 89 101 10.0 20.0 0.00 0.00 0.00 70 1015.8
20260504184035 89 103 8.0 20.0 0.00 0.00 0.00 70 1015.8
20260504183535 89 123 11.0 20.0 0.00 0.00 0.00 69 1015.9
20260504183048 89 138 11.0 19.0 0.00 0.00 0.00 69 1015.8
20260504182536 89 138 10.0 18.0 0.00 0.00 0.00 68 1016.0
20260504182034 89 146 12.0 20.0 0.00 0.00 0.00 69 1015.9
20260504181548 89 153 11.0 20.0 0.00 0.00 0.00 69 1016.0
20260504181035 89 153 11.0 20.0 0.00 0.00 0.00 69 1016.1
20260504180533 89 129 11.0 20.0 0.00 0.00 0.00 69 1016.1
20260504180045 89 121 11.0 19.0 0.00 0.00 0.00 69 1016.2
20260504175534 89 124 11.0 21.0 0.00 0.00 0.00 69 1016.2
20260504175034 89 119 11.0 21.0 0.00 0.00 0.00 67 1016.2
20260504174549 89 126 10.0 20.0 0.00 0.00 0.00 67 1016.3
20260504174034 89 155 9.0 20.0 0.00 0.00 0.00 67 1016.2
20260504173533 89 144 10.0 20.0 0.00 0.00 0.00 68 1016.4
20260504173047 89 140 9.0 19.0 0.00 0.00 0.00 67 1016.4
20260504172535 89 167 10.0 19.0 0.00 0.00 0.00 67 1016.5
20260504172035 89 113 9.0 19.0 0.00 0.00 0.00 65 1016.6
20260504171553 89 110 9.0 19.0 0.00 0.00 0.00 66 1016.7
20260504171034 89 134 10.0 21.0 0.00 0.00 0.00 63 1016.8
20260504170534 89 124 9.0 21.0 0.00 0.00 0.00 63 1016.8
20260504151038 87 95 12.0 21.0 0.00 0.00 0.00 68 1017.2
20260504150534 87 140 10.0 20.0 0.00 0.00 0.00 70 1017.1
20260504141035 86 67 11.0 20.0 0.00 0.00 0.00 70 1017.5
20260504140535 86 115 11.0 19.0 0.00 0.00 0.00 72 1017.6
20260504130536 84 80 9.0 19.0 0.00 0.00 0.00 74 1017.3
20260504110537 77 51 3.0 8.0 0.00 0.00 0.00 82 1016.9
20260504100534 76 25 4.0 9.0 0.00 0.00 0.00 83 1016.6
20260504081542 77 17 5.0 10.0 0.00 0.00 0.00 82 1016.0
20260504081035 77 40 5.0 11.0 0.00 0.00 0.00 82 1015.9